Location: Unspecified
(0.0000°N, 0.0000°E)
Time: 03:14:00
(UTC+00:00)

Transit 4A - Pass Details

Date: 14 December 2018
Orbit: 868 x 977 km, 66.8° (Epoch: 16 January)

Event Time Altitude Azimuth Distance (km) Brightness Sun altitude
Rises 01:44:43 0° 191° (S) 3,508 - -54.6°
Reaches altitude 10° 01:47:18 10° 187° (S) 2,551 - -54.1°
Maximum altitude 01:53:02 55° 110° (ESE) 1,041 - -53.0°
Drops below altitude 10° 01:58:40 10° 33° (NNE) 2,503 - -51.9°
Sets 02:01:10 0° 28° (NNE) 3,436 - -51.5°
